Cape Cod CGAS, MA

1:52 AM EDT on April 25, 2017 (GMT -0400)
Cape Cod Coast Guard Air Station

Weather History for KFMH - May, 2014

Change the Weather History Date:

Sunday, May 4, 2014

  Actual Average Record
Temperature  
Mean Temperature 55 °F -  
Max Temperature 62 °F 59 °F 86 °F (2001)
Min Temperature 48 °F 42 °F 35 °F (2003)
Degree Days  
Heating Degree Days 10    
Growing Degree Days 5 (Base 50)    
Moisture  
Dew Point 42 °F    
Average Humidity 64    
Maximum Humidity 93    
Minimum Humidity 38    
Precipitation  
Precipitation 0.02 in - - ()
Sea Level Pressure  
Sea Level Pressure 29.63 in    
Wind  
Wind Speed 14 mph (WSW)    
Max Wind Speed 30 mph    
Max Gust Speed 41 mph    
Visibility 10 miles    
Events Rain    
Averages and records for this station are not official NWS values.
T = Trace of Precipitation, MM = Missing Value Source: NWS Daily Summary

Daily Weather History Graph

Daily Weather History Graph

Search for Another Location

Airport or City:

Trip Planner

Search our weather history database for the weather conditions in past years. The results will help you decide how hot, cold, wet, or windy it might be!

Date:

Astronomy

May. 04, 2014 Rise Set
Actual Time 5:34 AM EDT 7:43 PM EDT
Civil Twilight 5:04 AM EDT 8:14 PM EDT
Nautical Twilight 4:26 AM EDT 8:51 PM EDT
Astronomical Twilight 3:45 AM EDT 9:33 PM EDT
Moon 9:55 AM EDT (5/4) No Moon Set
Length of Visible Light 15h 09m
Length of Day
14h 08m
Waxing Crescent, 27% of the Moon is Illuminated
May 4
Waxing Crescent
May 6
First Quarter
May 14
Full
May 21
Last Quarter
May 28
New

Hourly Weather History & Observations

Time (EDT) Temp. Dew Point Humidity Pressure Visibility Wind Dir Wind Speed Gust Speed Precip Events Conditions
12:15 AM 50.0 °F 41.0 °F 71% 29.76 in 10.0 mi SW 6.9 mph - N/A   Mostly Cloudy
12:35 AM 50.0 °F 41.0 °F 71% 29.75 in 10.0 mi SW 9.2 mph - N/A   Scattered Clouds
12:55 AM 50.0 °F 41.0 °F 71% 29.75 in 10.0 mi SW 8.1 mph - N/A   Mostly Cloudy
1:15 AM 50.0 °F 41.0 °F 71% 29.74 in 10.0 mi SW 5.8 mph - N/A   Overcast
1:35 AM 50.0 °F 41.0 °F 71% 29.73 in 10.0 mi SSW 6.9 mph - N/A   Overcast
1:55 AM 50.0 °F 42.8 °F 76% 29.73 in 10.0 mi SSW 9.2 mph - N/A   Overcast
2:15 AM 50.0 °F 42.8 °F 76% 29.72 in 10.0 mi SSW 8.1 mph - N/A   Overcast
2:35 AM 51.8 °F 44.6 °F 76% 29.72 in 10.0 mi SW 9.2 mph - N/A   Overcast
2:55 AM 53.6 °F 46.4 °F 77% 29.71 in 10.0 mi SW 13.8 mph - N/A   Mostly Cloudy
3:15 AM 53.6 °F 46.4 °F 77% 29.70 in 10.0 mi SW 13.8 mph - N/A   Overcast
3:35 AM 53.6 °F 48.2 °F 82% 29.70 in 10.0 mi SW 15.0 mph - N/A   Overcast
3:55 AM 51.8 °F 48.2 °F 88% 29.69 in 10.0 mi SW 11.5 mph - N/A   Overcast
4:15 AM 51.8 °F 48.2 °F 88% 29.69 in 10.0 mi SW 11.5 mph - N/A   Overcast
4:35 AM 51.8 °F 46.4 °F 82% 29.69 in 10.0 mi SW 11.5 mph - N/A   Mostly Cloudy
4:55 AM 50.0 °F 46.4 °F 87% 29.69 in 10.0 mi WSW 12.7 mph - N/A   Mostly Cloudy
5:15 AM 50.0 °F 46.4 °F 87% 29.68 in 10.0 mi WSW 11.5 mph - N/A   Partly Cloudy
5:35 AM 48.2 °F 46.4 °F 93% 29.69 in 10.0 mi WSW 11.5 mph - N/A   Partly Cloudy
5:55 AM 48.2 °F 46.4 °F 93% 29.68 in 10.0 mi WSW 10.4 mph - N/A   Clear
6:15 AM 48.2 °F 46.4 °F 93% 29.68 in 10.0 mi WSW 12.7 mph - N/A   Scattered Clouds
6:35 AM 50.0 °F 46.4 °F 87% 29.68 in 10.0 mi WSW 12.7 mph - N/A   Scattered Clouds
6:55 AM 51.8 °F 46.4 °F 82% 29.68 in 10.0 mi WSW 11.5 mph - N/A   Clear
7:15 AM 53.6 °F 46.4 °F 77% 29.68 in 10.0 mi WSW 13.8 mph - N/A   Clear
7:35 AM 53.6 °F 46.4 °F 77% 29.68 in 10.0 mi WSW 16.1 mph - N/A   Clear
7:55 AM 55.4 °F 46.4 °F 72% 29.68 in 10.0 mi WSW 15.0 mph 21.9 mph N/A   Clear
8:15 AM 55.4 °F 46.4 °F 72% 29.67 in 10.0 mi WSW 12.7 mph 20.7 mph N/A   Clear
8:35 AM 55.4 °F 46.4 °F 72% 29.66 in 10.0 mi WSW 13.8 mph 19.6 mph N/A   Clear
8:55 AM 57.2 °F 46.4 °F 67% 29.65 in 10.0 mi SW 16.1 mph - N/A   Clear
9:15 AM 59.0 °F 44.6 °F 59% 29.65 in 10.0 mi WSW 16.1 mph 23.0 mph N/A   Clear
9:35 AM 59.0 °F 44.6 °F 59% 29.63 in 10.0 mi WSW 15.0 mph 24.2 mph N/A   Clear
9:55 AM 59.0 °F 44.6 °F 59% 29.63 in 10.0 mi SW 21.9 mph - N/A   Clear
10:15 AM 59.0 °F 42.8 °F 55% 29.62 in 10.0 mi WSW 24.2 mph 31.1 mph N/A   Clear
10:35 AM 59.0 °F 42.8 °F 55% 29.61 in 10.0 mi WSW 25.3 mph 32.2 mph N/A   Clear
10:55 AM 59.0 °F 41.0 °F 51% 29.60 in 10.0 mi WSW 24.2 mph 35.7 mph N/A   Clear
11:15 AM 60.8 °F 41.0 °F 48% 29.60 in 10.0 mi SW 24.2 mph 33.4 mph N/A   Clear
11:35 AM 59.0 °F 39.2 °F 48% 29.59 in 10.0 mi WSW 28.8 mph 36.8 mph N/A   Clear
11:55 AM 60.8 °F 41.0 °F 48% 29.58 in 10.0 mi WSW 23.0 mph 34.5 mph N/A   Clear
12:15 PM 60.8 °F 41.0 °F 48% 29.57 in 10.0 mi SW 26.5 mph 34.5 mph N/A   Partly Cloudy
12:35 PM 60.8 °F 41.0 °F 48% 29.57 in 10.0 mi SW 25.3 mph 34.5 mph N/A   Partly Cloudy
12:55 PM 60.8 °F 39.2 °F 45% 29.57 in 10.0 mi WSW 24.2 mph 32.2 mph N/A   Mostly Cloudy
1:15 PM 59.0 °F 39.2 °F 48% 29.56 in 10.0 mi WSW 27.6 mph 35.7 mph N/A   Mostly Cloudy
1:35 PM 62.6 °F 39.2 °F 42% 29.56 in 10.0 mi WSW 23.0 mph 39.1 mph N/A   Mostly Cloudy
1:55 PM 60.8 °F 39.2 °F 45% 29.56 in 10.0 mi WSW 29.9 mph 41.4 mph N/A   Mostly Cloudy
2:15 PM 60.8 °F 39.2 °F 45% 29.56 in 10.0 mi WSW 24.2 mph 33.4 mph N/A   Overcast
2:35 PM 60.8 °F 39.2 °F 45% 29.56 in 10.0 mi WSW 23.0 mph 34.5 mph N/A   Mostly Cloudy
2:55 PM 60.8 °F 39.2 °F 45% 29.55 in 10.0 mi WSW 29.9 mph 39.1 mph N/A   Mostly Cloudy
3:15 PM 59.0 °F 39.2 °F 48% 29.55 in 10.0 mi WSW 24.2 mph 33.4 mph N/A   Mostly Cloudy
3:35 PM 57.2 °F 39.2 °F 51% 29.56 in 10.0 mi WSW 19.6 mph 28.8 mph N/A   Mostly Cloudy
3:55 PM 57.2 °F 39.2 °F 51% 29.55 in 10.0 mi WSW 25.3 mph 33.4 mph N/A   Mostly Cloudy
4:15 PM 59.0 °F 39.2 °F 48% 29.56 in 10.0 mi WSW 20.7 mph 33.4 mph N/A   Mostly Cloudy
4:35 PM 59.0 °F 41.0 °F 51% 29.56 in 10.0 mi WSW 20.7 mph 27.6 mph N/A   Mostly Cloudy
4:55 PM 57.2 °F 39.2 °F 51% 29.56 in 10.0 mi WSW 13.8 mph 20.7 mph N/A   Mostly Cloudy
5:15 PM 59.0 °F 39.2 °F 48% 29.56 in 10.0 mi WSW 15.0 mph - N/A   Mostly Cloudy
5:35 PM 55.4 °F 39.2 °F 54% 29.55 in 10.0 mi WSW 11.5 mph 17.3 mph N/A   Scattered Clouds
5:55 PM 55.4 °F 39.2 °F 54% 29.56 in 10.0 mi WSW 17.3 mph - N/A   Mostly Cloudy
6:15 PM 51.8 °F 42.8 °F 71% 29.58 in 6.0 mi West 20.7 mph 36.8 mph N/A Rain Light Rain
6:35 PM 51.8 °F 42.8 °F 71% 29.58 in 5.0 mi SW 6.9 mph - N/A   Light Drizzle
6:55 PM 50.0 °F 46.4 °F 87% 29.58 in 9.0 mi SSW 8.1 mph - N/A   Mostly Cloudy
7:15 PM 50.0 °F 44.6 °F 82% 29.58 in 10.0 mi SW 8.1 mph - N/A   Mostly Cloudy
7:35 PM 50.0 °F 44.6 °F 82% 29.58 in 10.0 mi WSW 5.8 mph - N/A Rain Light Rain
7:55 PM 48.2 °F 44.6 °F 87% 29.58 in 10.0 mi West 8.1 mph - N/A   Scattered Clouds
8:15 PM 48.2 °F 42.8 °F 82% 29.59 in 10.0 mi West 8.1 mph - N/A   Mostly Cloudy
8:35 PM 51.8 °F 37.4 °F 58% 29.58 in 10.0 mi WNW 19.6 mph 28.8 mph N/A   Scattered Clouds
8:55 PM 51.8 °F 35.6 °F 54% 29.59 in 10.0 mi WNW 12.7 mph 21.9 mph N/A   Partly Cloudy
9:15 PM 51.8 °F 35.6 °F 54% 29.60 in 10.0 mi WNW 11.5 mph 24.2 mph N/A   Mostly Cloudy
9:35 PM 51.8 °F 35.6 °F 54% 29.60 in 10.0 mi WNW 16.1 mph 29.9 mph N/A   Partly Cloudy
9:55 PM 51.8 °F 35.6 °F 54% 29.61 in 10.0 mi WNW 15.0 mph 28.8 mph N/A   Partly Cloudy
10:15 PM 50.0 °F 35.6 °F 58% 29.61 in 10.0 mi WNW 17.3 mph - N/A   Clear
10:35 PM 50.0 °F 35.6 °F 58% 29.61 in 10.0 mi WNW 13.8 mph 25.3 mph N/A   Clear
10:55 PM 50.0 °F 35.6 °F 58% 29.61 in 10.0 mi WNW 15.0 mph 21.9 mph N/A   Clear
11:15 PM 50.0 °F 35.6 °F 58% 29.61 in 10.0 mi WNW 12.7 mph 19.6 mph N/A   Clear
11:35 PM 50.0 °F 37.4 °F 62% 29.61 in 10.0 mi WNW 13.8 mph 21.9 mph N/A   Mostly Cloudy
11:55 PM 50.0 °F 37.4 °F 62% 29.61 in 10.0 mi West 12.7 mph - N/A   Mostly Cloudy